Location: Newark
(53.2000°N, 6.1000°W)
Time: 22:27:05
(UTC+00:00)

ISS - Pass Details

Date: 06 October 2020
Orbit: 417 x 420 km, 51.6° (Epoch: 29 October)

Event Time Altitude Azimuth Distance (km) Brightness Sun altitude
Rises 18:17:49 0° 279° (W) 2,370 2.2 -5.2°
Reaches altitude 10° 18:20:12 10° 265° (W) 1,504 1.0 -5.6°
Maximum altitude 18:22:54 23° 211° (SSW) 956 -1.5 -6.0°
Drops below altitude 10° 18:25:36 10° 158° (SSE) 1,499 -1.2 -6.4°
Sets 18:27:58 0° 143° (SE) 2,360 -0.3 -6.8°
